FFT2149 KISP-KMCO

Flight info

Callsign FFT2149
Flight time 2h 13m
Altitude 34000
Route BEADS EMJAY Q167 ZJAAY Q97 SAWED MOXXY Q85 LPERD GTOUT1
Aircraft A21N/M-SDE3FGHIRWY/LB1

Departure

Time 2026-04-25 14:38
Airport Long Island MacArthur Airport (KISP)

Arrival

Time 2026-04-25 16:52
Airport Orlando International Airport (KMCO)
Time Latitude Longitude Altitude Speed Heading
2026-04-25 14:09 40.79039 -73.09621 85 ft 0 kts 181°
2026-04-25 14:27 40.79053 -73.09620 85 ft 2 kts 181°
2026-04-25 14:27 40.79068 -73.09619 86 ft 2 kts 181°
2026-04-25 14:27 40.79083 -73.09619 86 ft 2 kts 181°
2026-04-25 14:27 40.79098 -73.09615 86 ft 2 kts 214°
2026-04-25 14:28 40.79108 -73.09600 86 ft 2 kts 240°
2026-04-25 14:28 40.79113 -73.09583 85 ft 1 kts 265°
2026-04-25 14:28 40.79113 -73.09575 85 ft 1 kts 271°
2026-04-25 14:28 40.79113 -73.09572 85 ft 0 kts 270°
2026-04-25 14:32 40.79113 -73.09573 85 ft 0 kts 270°
2026-04-25 14:33 40.79113 -73.09603 85 ft 5 kts 270°
2026-04-25 14:33 40.79112 -73.09663 86 ft 6 kts 267°
2026-04-25 14:33 40.79112 -73.09734 86 ft 9 kts 270°
2026-04-25 14:33 40.79113 -73.09838 87 ft 13 kts 271°
2026-04-25 14:34 40.79112 -73.09978 88 ft 16 kts 269°
2026-04-25 14:34 40.79112 -73.10143 89 ft 18 kts 270°
2026-04-25 14:34 40.79111 -73.10313 91 ft 17 kts 270°
2026-04-25 14:34 40.79113 -73.10471 92 ft 16 kts 270°
2026-04-25 14:35 40.79112 -73.10624 93 ft 16 kts 269°
2026-04-25 14:35 40.79070 -73.10769 93 ft 18 kts 226°
2026-04-25 14:35 40.78982 -73.10884 93 ft 17 kts 224°
2026-04-25 14:35 40.78898 -73.10995 93 ft 16 kts 225°
2026-04-25 14:36 40.78831 -73.11085 93 ft 11 kts 230°
2026-04-25 14:36 40.78820 -73.11113 93 ft 0 kts 255°
2026-04-25 14:36 40.78819 -73.11113 93 ft 0 kts 255°
2026-04-25 14:37 40.78818 -73.11144 93 ft 7 kts 280°
2026-04-25 14:37 40.78856 -73.11212 93 ft 9 kts 326°
2026-04-25 14:37 40.78899 -73.11199 93 ft 5 kts 41°
2026-04-25 14:37 40.78903 -73.11195 93 ft 3 kts 43°
2026-04-25 14:38 40.79108 -73.10925 94 ft 83 kts 45°
2026-04-25 14:38 40.79702 -73.10146 95 ft 153 kts 46°
2026-04-25 14:38 40.80549 -73.09080 506 ft 177 kts 47°
2026-04-25 14:38 40.81453 -73.07977 1345 ft 179 kts 47°
2026-04-25 14:39 40.82331 -73.06890 2220 ft 179 kts 47°
2026-04-25 14:39 40.83226 -73.05776 2864 ft 179 kts 46°
2026-04-25 14:39 40.84169 -73.04591 3128 ft 201 kts 47°
2026-04-25 14:39 40.84995 -73.02975 3076 ft 232 kts 78°
2026-04-25 14:40 40.84860 -73.00809 3406 ft 245 kts 112°
2026-04-25 14:40 40.84158 -72.98725 4006 ft 253 kts 114°
2026-04-25 14:40 40.83473 -72.96558 4637 ft 259 kts 111°
2026-04-25 14:40 40.82845 -72.94334 5257 ft 266 kts 109°
2026-04-25 14:41 40.82238 -72.91990 5887 ft 272 kts 107°
2026-04-25 14:41 40.81653 -72.89606 6501 ft 278 kts 106°
2026-04-25 14:41 40.81077 -72.87178 7132 ft 282 kts 105°
2026-04-25 14:41 40.80496 -72.84682 7751 ft 287 kts 105°
2026-04-25 14:42 40.79911 -72.82153 8360 ft 291 kts 105°
2026-04-25 14:42 40.79714 -72.81303 8561 ft 293 kts 105°
2026-04-25 14:42 40.78716 -72.76983 9524 ft 300 kts 105°
2026-04-25 14:42 40.78106 -72.74344 9894 ft 305 kts 105°
2026-04-25 14:43 40.77486 -72.71662 9977 ft 306 kts 105°
2026-04-25 14:43 40.76869 -72.68998 10032 ft 309 kts 105°
2026-04-25 14:43 40.76229 -72.66238 10321 ft 321 kts 105°
2026-04-25 14:43 40.75447 -72.63388 10579 ft 338 kts 118°
2026-04-25 14:44 40.73895 -72.61073 10966 ft 346 kts 146°
2026-04-25 14:44 40.71705 -72.59811 11508 ft 343 kts 172°
2026-04-25 14:44 40.69375 -72.59837 12032 ft 337 kts 197°
2026-04-25 14:44 40.67274 -72.61079 12569 ft 327 kts 221°
2026-04-25 14:45 40.65579 -72.63002 13123 ft 327 kts 227°
2026-04-25 14:45 40.63865 -72.65012 13669 ft 330 kts 227°
2026-04-25 14:45 40.62163 -72.66979 14374 ft 326 kts 227°
2026-04-25 14:45 40.60484 -72.68896 15175 ft 318 kts 227°
2026-04-25 14:46 40.58826 -72.70774 16026 ft 308 kts 227°
2026-04-25 14:46 40.57240 -72.72566 16764 ft 300 kts 229°
2026-04-25 14:46 40.55666 -72.74348 17312 ft 299 kts 229°
2026-04-25 14:46 40.54094 -72.76129 17792 ft 300 kts 229°
2026-04-25 14:47 40.52512 -72.77921 18266 ft 300 kts 230°
2026-04-25 14:47 40.51990 -72.78510 18425 ft 300 kts 230°
2026-04-25 14:47 40.49355 -72.81484 19160 ft 302 kts 230°
2026-04-25 14:47 40.47781 -72.83257 19584 ft 303 kts 230°
2026-04-25 14:48 40.46155 -72.85090 19812 ft 311 kts 229°
2026-04-25 14:48 40.44481 -72.86980 19995 ft 321 kts 229°
2026-04-25 14:48 40.42764 -72.88914 20176 ft 331 kts 229°
2026-04-25 14:48 40.40991 -72.90904 20355 ft 340 kts 229°
2026-04-25 14:49 40.39184 -72.92927 20524 ft 350 kts 229°
2026-04-25 14:49 40.37303 -72.95029 20694 ft 359 kts 228°
2026-04-25 14:49 40.35376 -72.97181 20881 ft 367 kts 228°
2026-04-25 14:49 40.33419 -72.99361 21227 ft 370 kts 228°
2026-04-25 14:50 40.31460 -73.01542 21579 ft 372 kts 228°
2026-04-25 14:50 40.29492 -73.03732 21956 ft 373 kts 228°
2026-04-25 14:50 40.27525 -73.05921 22312 ft 375 kts 228°
2026-04-25 14:50 40.25525 -73.08150 22633 ft 378 kts 229°
2026-04-25 14:51 40.23512 -73.10390 22953 ft 380 kts 229°
2026-04-25 14:51 40.21518 -73.12609 23250 ft 383 kts 228°
2026-04-25 14:51 40.19465 -73.14890 23545 ft 386 kts 228°
2026-04-25 14:51 40.17439 -73.17140 23849 ft 388 kts 228°
2026-04-25 14:52 40.15386 -73.19417 24188 ft 389 kts 229°
2026-04-25 14:52 40.13308 -73.21717 24495 ft 391 kts 229°
2026-04-25 14:52 40.11223 -73.24027 24833 ft 392 kts 229°
2026-04-25 14:52 40.10544 -73.24779 24948 ft 392 kts 228°
2026-04-25 14:53 40.07089 -73.28620 25468 ft 394 kts 229°
2026-04-25 14:53 40.05007 -73.30952 25794 ft 395 kts 229°
2026-04-25 14:53 40.02916 -73.33300 26127 ft 396 kts 229°
2026-04-25 14:53 40.00823 -73.35648 26426 ft 397 kts 229°
2026-04-25 14:54 39.98737 -73.37984 26689 ft 399 kts 229°
2026-04-25 14:54 39.96639 -73.40329 27006 ft 399 kts 229°
2026-04-25 14:54 39.94522 -73.42696 27262 ft 401 kts 229°
2026-04-25 14:54 39.92395 -73.45073 27519 ft 403 kts 229°
2026-04-25 14:55 39.90264 -73.47449 27781 ft 404 kts 229°
2026-04-25 14:55 39.88122 -73.49834 28038 ft 406 kts 229°
2026-04-25 14:55 39.85984 -73.52213 28311 ft 406 kts 229°
2026-04-25 14:55 39.83833 -73.54604 28576 ft 407 kts 229°
2026-04-25 14:56 39.81704 -73.56975 28785 ft 409 kts 229°
2026-04-25 14:56 39.79544 -73.59379 29025 ft 410 kts 229°
2026-04-25 14:56 39.77369 -73.61794 29269 ft 411 kts 229°
2026-04-25 14:56 39.75201 -73.64204 29498 ft 412 kts 229°
2026-04-25 14:57 39.73039 -73.66605 29751 ft 413 kts 227°
2026-04-25 14:57 39.70849 -73.69035 29979 ft 414 kts 228°
2026-04-25 14:57 39.66461 -73.73895 30044 ft 415 kts 228°
2026-04-25 14:58 39.62069 -73.78752 30050 ft 414 kts 228°
2026-04-25 14:58 39.57693 -73.83586 30041 ft 414 kts 228°
2026-04-25 14:59 39.53310 -73.88422 30037 ft 414 kts 227°
2026-04-25 14:59 39.48930 -73.93246 30038 ft 414 kts 227°
2026-04-25 15:00 39.44553 -73.98057 30038 ft 415 kts 227°
2026-04-25 15:00 39.40151 -74.02885 30031 ft 416 kts 227°
2026-04-25 15:01 39.35729 -74.07716 30414 ft 419 kts 227°
2026-04-25 15:01 39.33499 -74.10148 30684 ft 419 kts 227°
2026-04-25 15:01 39.31266 -74.12582 30908 ft 420 kts 227°
2026-04-25 15:02 39.29044 -74.15003 31111 ft 422 kts 227°
2026-04-25 15:02 39.26785 -74.17463 31349 ft 422 kts 227°
2026-04-25 15:02 39.24544 -74.19901 31549 ft 424 kts 227°
2026-04-25 15:02 39.22301 -74.22341 31730 ft 425 kts 227°
2026-04-25 15:03 39.20034 -74.24805 31926 ft 426 kts 227°
2026-04-25 15:03 39.17764 -74.27269 32113 ft 428 kts 227°
2026-04-25 15:03 39.15501 -74.29723 32340 ft 428 kts 227°
2026-04-25 15:03 39.13234 -74.32181 32575 ft 428 kts 227°
2026-04-25 15:04 39.10951 -74.34653 32763 ft 429 kts 227°
2026-04-25 15:04 39.08666 -74.37125 32951 ft 429 kts 227°
2026-04-25 15:04 39.06380 -74.39597 33116 ft 431 kts 227°
2026-04-25 15:04 39.04092 -74.42071 33292 ft 432 kts 227°
2026-04-25 15:05 39.01809 -74.44535 33473 ft 432 kts 227°
2026-04-25 15:05 38.99523 -74.47002 33663 ft 433 kts 227°
2026-04-25 15:05 38.97197 -74.49506 33851 ft 433 kts 227°
2026-04-25 15:06 38.92655 -74.54530 34000 ft 432 kts 229°
2026-04-25 15:06 38.88198 -74.59752 33989 ft 433 kts 229°
2026-04-25 15:07 38.83763 -74.64941 33994 ft 434 kts 229°
2026-04-25 15:07 38.79285 -74.70176 33987 ft 436 kts 229°
2026-04-25 15:08 38.74772 -74.75378 33983 ft 438 kts 226°
2026-04-25 15:08 38.70074 -74.80292 33980 ft 438 kts 225°
2026-04-25 15:09 38.65363 -74.85204 33979 ft 438 kts 225°
2026-04-25 15:09 38.58303 -74.92548 33976 ft 439 kts 225°
2026-04-25 15:10 38.53545 -74.97487 33977 ft 438 kts 226°
2026-04-25 15:11 38.46641 -75.05064 33957 ft 439 kts 225°
2026-04-25 15:11 38.41737 -75.09787 33958 ft 441 kts 223°
2026-04-25 15:12 38.34384 -75.16770 33952 ft 441 kts 223°
2026-04-25 15:12 38.31086 -75.19898 33952 ft 441 kts 223°
2026-04-25 15:13 38.22098 -75.28406 33943 ft 441 kts 223°
2026-04-25 15:14 38.17153 -75.33078 33931 ft 441 kts 223°
2026-04-25 15:14 38.12247 -75.37705 33927 ft 440 kts 223°
2026-04-25 15:15 38.07343 -75.42320 33928 ft 440 kts 223°
2026-04-25 15:15 38.02395 -75.46844 33927 ft 442 kts 220°
2026-04-25 15:16 37.97309 -75.51242 33927 ft 442 kts 220°
2026-04-25 15:16 37.89714 -75.57831 33926 ft 443 kts 220°
2026-04-25 15:17 37.81996 -75.64280 33920 ft 445 kts 217°
2026-04-25 15:18 37.76664 -75.68297 33914 ft 445 kts 216°
2026-04-25 15:18 37.68685 -75.74299 33910 ft 445 kts 216°
2026-04-25 15:19 37.65141 -75.76959 33909 ft 445 kts 216°
2026-04-25 15:19 37.58035 -75.82287 33907 ft 446 kts 216°
2026-04-25 15:20 37.52827 -75.86463 33902 ft 443 kts 220°
2026-04-25 15:20 37.47996 -75.91179 33899 ft 441 kts 224°
2026-04-25 15:21 37.43204 -75.96021 33892 ft 441 kts 224°
2026-04-25 15:21 37.38436 -76.00826 33889 ft 440 kts 224°
2026-04-25 15:22 37.33645 -76.05647 33881 ft 442 kts 223°
2026-04-25 15:22 37.28839 -76.10474 33883 ft 442 kts 224°
2026-04-25 15:23 37.24043 -76.15282 33875 ft 442 kts 224°
2026-04-25 15:23 37.19266 -76.20063 33880 ft 441 kts 223°
2026-04-25 15:24 37.14458 -76.24870 33879 ft 441 kts 224°
2026-04-25 15:24 37.11284 -76.28039 33875 ft 441 kts 223°
2026-04-25 15:25 37.04894 -76.34406 33873 ft 442 kts 223°
2026-04-25 15:25 37.00079 -76.39194 33870 ft 441 kts 223°
2026-04-25 15:26 36.95285 -76.43954 33870 ft 441 kts 223°
2026-04-25 15:26 36.90463 -76.48733 33867 ft 441 kts 223°
2026-04-25 15:27 36.85683 -76.53463 33867 ft 441 kts 223°
2026-04-25 15:28 36.78486 -76.60571 33866 ft 441 kts 223°
2026-04-25 15:28 36.73681 -76.65307 33865 ft 442 kts 222°
2026-04-25 15:29 36.68832 -76.70077 33863 ft 441 kts 222°
2026-04-25 15:29 36.63997 -76.74826 33860 ft 442 kts 222°
2026-04-25 15:30 36.59173 -76.79558 33860 ft 442 kts 222°
2026-04-25 15:30 36.54360 -76.84269 33858 ft 442 kts 222°
2026-04-25 15:31 36.49531 -76.88989 33857 ft 442 kts 222°
2026-04-25 15:31 36.44705 -76.93697 33856 ft 442 kts 221°
2026-04-25 15:32 36.39886 -76.98394 33854 ft 442 kts 222°
2026-04-25 15:32 36.35049 -77.03100 33859 ft 443 kts 221°
2026-04-25 15:33 36.27770 -77.10167 33859 ft 443 kts 221°
2026-04-25 15:33 36.22925 -77.14861 33858 ft 443 kts 221°
2026-04-25 15:34 36.18084 -77.19546 33859 ft 443 kts 221°
2026-04-25 15:34 36.14848 -77.22673 33857 ft 442 kts 221°
2026-04-25 15:35 36.05975 -77.31230 33851 ft 443 kts 221°
2026-04-25 15:36 35.98728 -77.38226 33848 ft 443 kts 221°
2026-04-25 15:36 35.93861 -77.42932 33846 ft 443 kts 221°
2026-04-25 15:37 35.89014 -77.47614 33849 ft 443 kts 221°
2026-04-25 15:37 35.84157 -77.52296 33855 ft 444 kts 221°
2026-04-25 15:38 35.79314 -77.56956 33856 ft 444 kts 221°
2026-04-25 15:38 35.74425 -77.61654 33852 ft 445 kts 221°
2026-04-25 15:39 35.69546 -77.66335 33853 ft 446 kts 220°
2026-04-25 15:39 35.64656 -77.71021 33854 ft 447 kts 220°
2026-04-25 15:40 35.61392 -77.74141 33856 ft 447 kts 220°
2026-04-25 15:40 35.54857 -77.80385 33867 ft 449 kts 220°
2026-04-25 15:41 35.49914 -77.85098 33869 ft 449 kts 220°
2026-04-25 15:41 35.44989 -77.89785 33873 ft 448 kts 220°
2026-04-25 15:42 35.40096 -77.94435 33877 ft 448 kts 219°
2026-04-25 15:42 35.35162 -77.99115 33876 ft 448 kts 219°
2026-04-25 15:43 35.30238 -78.03780 33875 ft 449 kts 219°
2026-04-25 15:43 35.25272 -78.08478 33877 ft 450 kts 219°
2026-04-25 15:44 35.20332 -78.13145 33874 ft 450 kts 219°
2026-04-25 15:44 35.15378 -78.17816 33876 ft 451 kts 219°
2026-04-25 15:45 35.10409 -78.22496 33881 ft 451 kts 219°
2026-04-25 15:45 35.07108 -78.25600 33884 ft 451 kts 219°
2026-04-25 15:46 35.00481 -78.31821 33888 ft 452 kts 219°
2026-04-25 15:46 34.95486 -78.36496 33891 ft 452 kts 219°
2026-04-25 15:47 34.90499 -78.41157 33883 ft 451 kts 219°
2026-04-25 15:47 34.85536 -78.45794 33890 ft 452 kts 219°
2026-04-25 15:48 34.80535 -78.50456 33886 ft 452 kts 219°
2026-04-25 15:48 34.75572 -78.55080 33880 ft 453 kts 219°
2026-04-25 15:49 34.70576 -78.59727 33884 ft 453 kts 219°
2026-04-25 15:49 34.65570 -78.64377 33889 ft 454 kts 219°
2026-04-25 15:50 34.60496 -78.69080 33897 ft 454 kts 219°
2026-04-25 15:50 34.55481 -78.73725 33888 ft 454 kts 219°
2026-04-25 15:51 34.52150 -78.76806 33889 ft 454 kts 218°
2026-04-25 15:51 34.45430 -78.82993 33889 ft 454 kts 218°
2026-04-25 15:52 34.40278 -78.87438 33890 ft 455 kts 216°
2026-04-25 15:52 34.35093 -78.91815 33887 ft 456 kts 216°
2026-04-25 15:53 34.29910 -78.96185 33887 ft 457 kts 216°
2026-04-25 15:53 34.24685 -79.00581 33887 ft 457 kts 216°
2026-04-25 15:54 34.19477 -79.04952 33887 ft 456 kts 216°
2026-04-25 15:54 34.14283 -79.09308 33889 ft 456 kts 216°
2026-04-25 15:55 34.09084 -79.13665 33895 ft 457 kts 216°
2026-04-25 15:55 34.03858 -79.18037 33885 ft 457 kts 216°
2026-04-25 15:56 33.98618 -79.22411 33884 ft 457 kts 216°
2026-04-25 15:56 33.93396 -79.26765 33877 ft 457 kts 216°
2026-04-25 15:57 33.88165 -79.31121 33882 ft 457 kts 216°
2026-04-25 15:57 33.82916 -79.35487 33885 ft 458 kts 216°
2026-04-25 15:58 33.77699 -79.39821 33877 ft 457 kts 216°
2026-04-25 15:58 33.72457 -79.44169 33874 ft 458 kts 217°
2026-04-25 15:59 33.67203 -79.48523 33881 ft 458 kts 216°
2026-04-25 15:59 33.61988 -79.52835 33879 ft 459 kts 217°
2026-04-25 16:00 33.58485 -79.55730 33886 ft 459 kts 216°
2026-04-25 16:00 33.51478 -79.61510 33882 ft 459 kts 217°
2026-04-25 16:01 33.46200 -79.65856 33874 ft 458 kts 216°
2026-04-25 16:01 33.40953 -79.70173 33876 ft 459 kts 216°
2026-04-25 16:02 33.35706 -79.74482 33875 ft 459 kts 216°
2026-04-25 16:02 33.30421 -79.78801 33872 ft 459 kts 216°
2026-04-25 16:03 33.25182 -79.83083 33888 ft 459 kts 216°
2026-04-25 16:03 33.19912 -79.87386 33899 ft 459 kts 216°
2026-04-25 16:04 33.14648 -79.91676 33892 ft 459 kts 216°
2026-04-25 16:04 33.09341 -79.96001 33899 ft 460 kts 216°
2026-04-25 16:05 33.04075 -80.00281 33901 ft 461 kts 216°
2026-04-25 16:06 32.96128 -80.06732 33914 ft 461 kts 217°
2026-04-25 16:06 32.90841 -80.11017 33901 ft 460 kts 217°
2026-04-25 16:07 32.85512 -80.15327 33909 ft 461 kts 217°
2026-04-25 16:07 32.80232 -80.19596 33902 ft 460 kts 217°
2026-04-25 16:08 32.74921 -80.23882 33905 ft 461 kts 217°
2026-04-25 16:08 32.69627 -80.28148 33903 ft 461 kts 217°
2026-04-25 16:09 32.64332 -80.32410 33903 ft 461 kts 217°
2026-04-25 16:09 32.59012 -80.36676 33906 ft 462 kts 216°
2026-04-25 16:10 32.53501 -80.40565 33906 ft 463 kts 212°
2026-04-25 16:10 32.47884 -80.44350 33905 ft 463 kts 212°
2026-04-25 16:11 32.42286 -80.48121 33906 ft 463 kts 212°
2026-04-25 16:11 32.36698 -80.51884 33911 ft 463 kts 212°
2026-04-25 16:12 32.31108 -80.55644 33913 ft 463 kts 212°
2026-04-25 16:12 32.25516 -80.59400 33913 ft 463 kts 212°
2026-04-25 16:13 32.19890 -80.63172 33916 ft 463 kts 212°
2026-04-25 16:13 32.14317 -80.66906 33912 ft 463 kts 212°
2026-04-25 16:14 32.08691 -80.70670 33913 ft 464 kts 212°
2026-04-25 16:14 32.03073 -80.74422 33914 ft 463 kts 212°
2026-04-25 16:15 31.97477 -80.78154 33906 ft 463 kts 212°
2026-04-25 16:15 31.91873 -80.81887 33909 ft 464 kts 212°
2026-04-25 16:16 31.86222 -80.85644 33903 ft 464 kts 212°
2026-04-25 16:16 31.80620 -80.89366 33901 ft 464 kts 212°
2026-04-25 16:17 31.75012 -80.93089 33905 ft 464 kts 212°
2026-04-25 16:17 31.69365 -80.96831 33901 ft 464 kts 212°
2026-04-25 16:18 31.63765 -81.00537 33904 ft 464 kts 212°
2026-04-25 16:18 31.58149 -81.04243 33902 ft 465 kts 212°
2026-04-25 16:19 31.52404 -81.07789 33905 ft 465 kts 210°
2026-04-25 16:19 31.46648 -81.11283 33912 ft 465 kts 210°
2026-04-25 16:20 31.38075 -81.16524 33912 ft 465 kts 210°
2026-04-25 16:21 31.29404 -81.21684 33909 ft 466 kts 210°
2026-04-25 16:21 31.23564 -81.24895 33905 ft 468 kts 204°
2026-04-25 16:22 31.17286 -81.27127 33910 ft 473 kts 195°
2026-04-25 16:22 31.14043 -81.27808 33729 ft 476 kts 190°
2026-04-25 16:22 31.10752 -81.28184 33458 ft 476 kts 185°
2026-04-25 16:22 31.07461 -81.28269 33198 ft 474 kts 182°
2026-04-25 16:23 31.04141 -81.28257 32930 ft 472 kts 181°
2026-04-25 16:23 31.00875 -81.28232 32669 ft 470 kts 181°
2026-04-25 16:23 30.97615 -81.28210 32407 ft 471 kts 181°
2026-04-25 16:23 30.94302 -81.28193 32138 ft 471 kts 181°
2026-04-25 16:24 30.91023 -81.28181 31874 ft 471 kts 181°
2026-04-25 16:24 30.87769 -81.28170 31611 ft 470 kts 181°
2026-04-25 16:24 30.84474 -81.28160 31346 ft 468 kts 181°
2026-04-25 16:24 30.81224 -81.28152 31085 ft 466 kts 181°
2026-04-25 16:25 30.77998 -81.28145 30824 ft 464 kts 181°
2026-04-25 16:25 30.71574 -81.28132 30301 ft 461 kts 181°
2026-04-25 16:25 30.68375 -81.28126 30040 ft 460 kts 181°
2026-04-25 16:26 30.65193 -81.28119 29927 ft 459 kts 181°
2026-04-25 16:26 30.58758 -81.28001 29865 ft 461 kts 178°
2026-04-25 16:26 30.55590 -81.27773 29601 ft 458 kts 177°
2026-04-25 16:27 30.52422 -81.27531 29346 ft 456 kts 177°
2026-04-25 16:27 30.49269 -81.27288 29091 ft 454 kts 177°
2026-04-25 16:27 30.46108 -81.27046 28837 ft 451 kts 177°
2026-04-25 16:27 30.42989 -81.26809 28581 ft 450 kts 177°
2026-04-25 16:28 30.39883 -81.26573 28325 ft 447 kts 177°
2026-04-25 16:28 30.36749 -81.26337 28070 ft 446 kts 177°
2026-04-25 16:28 30.33669 -81.26106 27818 ft 443 kts 177°
2026-04-25 16:28 30.30600 -81.25875 27567 ft 441 kts 177°
2026-04-25 16:29 30.27546 -81.25646 27312 ft 439 kts 177°
2026-04-25 16:29 30.24502 -81.25419 27060 ft 437 kts 177°
2026-04-25 16:29 30.21489 -81.25193 26805 ft 435 kts 177°
2026-04-25 16:29 30.18455 -81.24966 26547 ft 433 kts 177°
2026-04-25 16:30 30.15472 -81.24743 26292 ft 431 kts 177°
2026-04-25 16:30 30.12461 -81.24519 26030 ft 429 kts 177°
2026-04-25 16:30 30.09505 -81.24297 25775 ft 427 kts 177°
2026-04-25 16:30 30.06527 -81.24075 25519 ft 425 kts 177°
2026-04-25 16:31 30.03599 -81.23856 25270 ft 423 kts 177°
2026-04-25 16:31 30.00675 -81.23638 25019 ft 421 kts 177°
2026-04-25 16:31 29.97729 -81.23419 24763 ft 418 kts 177°
2026-04-25 16:31 29.94853 -81.23205 24514 ft 416 kts 177°
2026-04-25 16:32 29.91949 -81.22989 24256 ft 414 kts 177°
2026-04-25 16:32 29.89114 -81.22778 24002 ft 412 kts 177°
2026-04-25 16:32 29.86256 -81.22566 23754 ft 409 kts 177°
2026-04-25 16:32 29.83400 -81.22354 23502 ft 407 kts 177°
2026-04-25 16:33 29.80588 -81.22147 23240 ft 406 kts 177°
2026-04-25 16:33 29.77777 -81.21938 22887 ft 403 kts 177°
2026-04-25 16:33 29.74966 -81.21729 22427 ft 401 kts 177°
2026-04-25 16:33 29.72193 -81.21520 21866 ft 401 kts 178°
2026-04-25 16:34 29.69417 -81.21306 21337 ft 400 kts 177°
2026-04-25 16:34 29.66623 -81.21068 20927 ft 396 kts 177°
2026-04-25 16:34 29.63895 -81.20829 20481 ft 393 kts 178°
2026-04-25 16:34 29.61188 -81.20594 20049 ft 390 kts 178°
2026-04-25 16:35 29.58494 -81.20360 19600 ft 387 kts 178°
2026-04-25 16:35 29.55812 -81.20129 19167 ft 384 kts 178°
2026-04-25 16:35 29.53186 -81.19904 18734 ft 381 kts 178°
2026-04-25 16:35 29.50533 -81.19677 18295 ft 378 kts 178°
2026-04-25 16:36 29.47915 -81.19453 17862 ft 376 kts 179°
2026-04-25 16:36 29.47047 -81.19379 17718 ft 375 kts 179°
2026-04-25 16:36 29.42748 -81.19015 17001 ft 371 kts 179°
2026-04-25 16:36 29.40180 -81.18797 16568 ft 369 kts 179°
2026-04-25 16:37 29.37604 -81.18579 16132 ft 367 kts 178°
2026-04-25 16:37 29.35067 -81.18363 15702 ft 365 kts 178°
2026-04-25 16:37 29.32549 -81.18149 15274 ft 363 kts 178°
2026-04-25 16:37 29.30032 -81.17934 14844 ft 361 kts 178°
2026-04-25 16:38 29.27536 -81.17718 14419 ft 360 kts 178°
2026-04-25 16:38 29.25026 -81.17497 13992 ft 358 kts 178°
2026-04-25 16:38 29.22555 -81.17278 13570 ft 357 kts 178°
2026-04-25 16:38 29.20092 -81.17014 13144 ft 356 kts 174°
2026-04-25 16:39 29.17680 -81.16432 12783 ft 354 kts 166°
2026-04-25 16:39 29.15344 -81.15533 12429 ft 351 kts 161°
2026-04-25 16:39 29.13063 -81.14551 12037 ft 349 kts 160°
2026-04-25 16:39 29.10795 -81.13559 11641 ft 347 kts 160°
2026-04-25 16:40 29.08589 -81.12602 11378 ft 339 kts 160°
2026-04-25 16:40 29.06416 -81.11668 11245 ft 327 kts 161°
2026-04-25 16:40 29.04298 -81.10774 11144 ft 314 kts 162°
2026-04-25 16:40 29.02258 -81.09988 10820 ft 311 kts 163°
2026-04-25 16:41 29.00211 -81.09216 10453 ft 309 kts 163°
2026-04-25 16:41 28.99511 -81.08954 10328 ft 308 kts 163°
2026-04-25 16:41 28.94043 -81.07735 9656 ft 295 kts 175°
2026-04-25 16:42 28.91999 -81.07498 9302 ft 293 kts 176°
2026-04-25 16:42 28.89967 -81.07270 8951 ft 291 kts 177°
2026-04-25 16:42 28.87942 -81.07480 8565 ft 286 kts 200°
2026-04-25 16:42 28.86218 -81.08517 8226 ft 281 kts 216°
2026-04-25 16:43 28.84624 -81.09808 7883 ft 279 kts 217°
2026-04-25 16:43 28.83052 -81.11096 7582 ft 275 kts 217°
2026-04-25 16:43 28.81524 -81.12334 7281 ft 270 kts 216°
2026-04-25 16:43 28.80003 -81.13553 7073 ft 261 kts 216°
2026-04-25 16:44 28.78546 -81.14713 6994 ft 248 kts 216°
2026-04-25 16:44 28.77160 -81.15817 6926 ft 235 kts 218°
2026-04-25 16:44 28.76064 -81.17167 6793 ft 232 kts 245°
2026-04-25 16:44 28.75468 -81.18830 6585 ft 226 kts 248°
2026-04-25 16:45 28.74883 -81.20483 6106 ft 226 kts 247°
2026-04-25 16:45 28.74279 -81.22141 5678 ft 226 kts 247°
2026-04-25 16:45 28.73675 -81.23784 5351 ft 227 kts 247°
2026-04-25 16:45 28.73066 -81.25435 5049 ft 226 kts 246°
2026-04-25 16:46 28.72458 -81.27083 4759 ft 226 kts 247°
2026-04-25 16:46 28.71849 -81.28733 4477 ft 226 kts 247°
2026-04-25 16:46 28.71247 -81.30369 4192 ft 224 kts 246°
2026-04-25 16:46 28.71039 -81.30907 4093 ft 224 kts 242°
2026-04-25 16:47 28.69075 -81.32666 3912 ft 224 kts 196°
2026-04-25 16:47 28.67525 -81.32948 3768 ft 223 kts 183°
2026-04-25 16:47 28.65982 -81.32971 3651 ft 223 kts 179°
2026-04-25 16:47 28.64435 -81.32935 3543 ft 222 kts 179°
2026-04-25 16:48 28.62901 -81.32900 3429 ft 211 kts 179°
2026-04-25 16:48 28.61467 -81.32877 3218 ft 202 kts 179°
2026-04-25 16:48 28.60092 -81.32860 2942 ft 196 kts 179°
2026-04-25 16:48 28.58739 -81.32846 2670 ft 190 kts 179°
2026-04-25 16:49 28.57438 -81.32833 2449 ft 180 kts 179°
2026-04-25 16:49 28.56230 -81.32821 2196 ft 167 kts 179°
2026-04-25 16:49 28.55095 -81.32809 1977 ft 161 kts 179°
2026-04-25 16:49 28.53961 -81.32797 1784 ft 161 kts 179°
2026-04-25 16:50 28.52850 -81.32784 1597 ft 160 kts 179°
2026-04-25 16:50 28.51724 -81.32772 1400 ft 160 kts 179°
2026-04-25 16:50 28.50614 -81.32760 1203 ft 159 kts 179°
2026-04-25 16:50 28.49504 -81.32748 992 ft 155 kts 179°
2026-04-25 16:51 28.48425 -81.32735 801 ft 156 kts 179°
2026-04-25 16:51 28.47327 -81.32719 592 ft 157 kts 180°
2026-04-25 16:51 28.46239 -81.32709 381 ft 156 kts 180°
2026-04-25 16:51 28.45875 -81.32707 319 ft 156 kts 180°
2026-04-25 16:52 28.44080 -81.32689 96 ft 145 kts 178°
2026-04-25 16:52 28.43300 -81.32682 94 ft 72 kts 180°
2026-04-25 16:52 28.42916 -81.32679 95 ft 44 kts 179°
2026-04-25 16:52 28.42715 -81.32656 96 ft 22 kts 163°
2026-04-25 16:53 28.42550 -81.32470 95 ft 15 kts 120°
2026-04-25 16:53 28.42501 -81.32374 94 ft 11 kts 120°
2026-04-25 16:53 28.42460 -81.32295 93 ft 12 kts 120°
2026-04-25 16:54 28.42416 -81.32210 93 ft 13 kts 120°
2026-04-25 16:54 28.42368 -81.32117 93 ft 13 kts 122°
2026-04-25 16:54 28.42344 -81.32016 92 ft 14 kts 87°
2026-04-25 16:54 28.42345 -81.31901 91 ft 15 kts 90°
2026-04-25 16:55 28.42394 -81.31831 90 ft 12 kts
2026-04-25 16:55 28.42485 -81.31834 90 ft 13 kts
2026-04-25 16:55 28.42579 -81.31834 90 ft 13 kts 359°
2026-04-25 16:55 28.42675 -81.31834 90 ft 13 kts
2026-04-25 16:56 28.42774 -81.31834 90 ft 14 kts 358°
2026-04-25 16:56 28.42873 -81.31837 90 ft 15 kts 359°
2026-04-25 16:56 28.42989 -81.31838 90 ft 16 kts 359°
2026-04-25 16:56 28.43103 -81.31840 91 ft 16 kts 359°
2026-04-25 16:57 28.43217 -81.31840 91 ft 16 kts
2026-04-25 16:57 28.43255 -81.31840 91 ft 16 kts 359°
2026-04-25 16:57 28.43442 -81.31843 91 ft 16 kts 359°
2026-04-25 16:57 28.43555 -81.31844 91 ft 15 kts
2026-04-25 16:58 28.43664 -81.31844 92 ft 15 kts 360°
2026-04-25 16:58 28.43773 -81.31846 92 ft 15 kts 360°
2026-04-25 16:58 28.43848 -81.31787 92 ft 15 kts 86°
2026-04-25 16:58 28.43850 -81.31665 92 ft 15 kts 90°
2026-04-25 16:59 28.43840 -81.31545 91 ft 11 kts 97°
2026-04-25 16:59 28.43823 -81.31467 91 ft 9 kts 124°
2026-04-25 16:59 28.43765 -81.31428 91 ft 10 kts 156°
2026-04-25 16:59 28.43702 -81.31400 90 ft 9 kts 159°
2026-04-25 17:00 28.43644 -81.31386 90 ft 8 kts 181°
2026-04-25 17:00 28.43607 -81.31392 90 ft 3 kts 205°
2026-04-25 17:00 28.43590 -81.31411 90 ft 3 kts 246°
2026-04-25 17:00 28.43587 -81.31433 90 ft 0 kts 269°
2026-04-25 17:01 28.43587 -81.31434 90 ft 0 kts 269°